Location: Newark
(63.1158°N, 8.1461°E)
Time: 21:15:13
(UTC+00:00)

Envisat - Pass Details

Date: 12 December 2019
Orbit: 764 x 766 km, 98.1° (Epoch: 17 January)

Event Time Altitude Azimuth Distance (km) Brightness Sun altitude
Rises 14:48:40 0° 109° (ESE) 3,237 6.0 -5.3°
Reaches altitude 10° 14:51:19 10° 97° (E) 2,313 5.1 -5.6°
Maximum altitude 14:55:23 25° 44° (NE) 1,531 4.0 -5.9°
Drops below altitude 10° 14:59:27 10° 351° (N) 2,321 5.2 -6.2°
Sets 15:02:07 0° 338° (NNW) 3,250 6.1 -6.5°
